Time,TemperatureF,DewpointF,PressureIn,WindDirection,WindDirectionDegrees,WindSpeedMPH,WindSpeedGustMPH,Humidity,HourlyPrecipIn,Conditions,Clouds,dailyrainin,SoftwareType,DateUTC
2013-04-16 00:00:00,43.5,42.7,30.41,SE,124,1.0,1.0,97,0.00,,,0.00,Wunderground v.1.15,2013-04-16 04:00:00,
2013-04-16 00:05:00,43.4,42.6,30.41,SE,125,1.0,1.0,97,0.00,,,0.00,Wunderground v.1.15,2013-04-16 04:05:00,
2013-04-16 00:10:00,43.4,42.6,30.41,ESE,123,1.0,2.0,97,0.00,,,0.00,Wunderground v.1.15,2013-04-16 04:10:00,
2013-04-16 07:25:00,45.5,43.0,30.40,ESE,110,4.0,4.0,91,0.00,,,0.00,Wunderground v.1.15,2013-04-16 11:25:00,
2013-04-16 07:30:00,45.8,43.3,30.40,East,94,4.0,4.0,91,0.00,,,0.00,Wunderground v.1.15,2013-04-16 11:30:00,
2013-04-16 07:35:00,46.0,43.2,30.40,East,96,4.0,4.0,90,0.00,,,0.00,Wunderground v.1.15,2013-04-16 11:35:00,
2013-04-16 07:40:00,46.5,43.7,30.40,ENE,74,3.0,5.0,90,0.00,,,0.00,Wunderground v.1.15,2013-04-16 11:40:00,
2013-04-16 07:45:00,46.5,43.7,30.40,ESE,105,3.0,3.0,90,0.00,,,0.00,Wunderground v.1.15,2013-04-16 11:45:00,
2013-04-16 07:50:00,46.5,43.7,30.40,ESE,102,3.0,3.0,90,0.00,,,0.00,Wunderground v.1.15,2013-04-16 11:50:00,
2013-04-16 08:00:00,46.6,43.8,30.41,ESE,117,4.0,4.0,90,0.00,,,0.00,Wunderground v.1.15,2013-04-16 12:00:00,
2013-04-16 08:05:00,46.8,44.0,30.40,ESE,120,3.0,4.0,90,0.00,,,0.00,Wunderground v.1.15,2013-04-16 12:05:00,
2013-04-16 08:10:00,46.9,43.8,30.40,East,99,3.0,3.0,89,0.00,,,0.00,Wunderground v.1.15,2013-04-16 12:10:00,
2013-04-16 08:15:00,47.2,44.4,30.40,ENE,67,3.0,3.0,90,0.00,,,0.00,Wunderground v.1.15,2013-04-16 12:15:00,
2013-04-16 08:20:00,47.1,44.0,30.41,ESE,117,3.0,3.0,89,0.00,,,0.00,Wunderground v.1.15,2013-04-16 12:20:00,
2013-04-16 08:25:00,47.2,44.1,30.40,SE,124,4.0,4.0,89,0.00,,,0.00,Wunderground v.1.15,2013-04-16 12:25:00,
2013-04-16 08:30:00,47.5,44.4,30.40,ESE,115,3.0,3.0,89,0.00,,,0.00,Wunderground v.1.15,2013-04-16 12:30:00,
2013-04-16 08:35:00,47.6,44.5,30.40,East,84,3.0,7.0,89,0.00,,,0.00,Wunderground v.1.15,2013-04-16 12:35:00,
2013-04-16 08:40:00,47.5,44.4,30.40,East,82,3.0,3.0,89,0.00,,,0.00,Wunderground v.1.15,2013-04-16 12:40:00,
2013-04-16 08:45:00,47.7,44.3,30.40,East,85,4.0,4.0,88,0.00,,,0.00,Wunderground v.1.15,2013-04-16 12:45:00,
2013-04-16 08:50:00,48.0,44.6,30.41,ESE,114,3.0,3.0,88,0.00,,,0.00,Wunderground v.1.15,2013-04-16 12:50:00,
2013-04-16 08:55:00,48.6,44.9,30.40,East,79,2.0,3.0,87,0.00,,,0.00,Wunderground v.1.15,2013-04-16 12:55:00,
2013-04-16 09:00:00,48.4,44.7,30.40,NNE,18,2.0,3.0,87,0.00,,,0.00,Wunderground v.1.15,2013-04-16 13:00:00,
2013-04-16 09:05:00,48.3,44.9,30.40,SE,139,3.0,3.0,88,0.00,,,0.00,Wunderground v.1.15,2013-04-16 13:05:00,
2013-04-16 09:15:00,48.3,44.6,30.40,SE,131,3.0,5.0,87,0.00,,,0.00,Wunderground v.1.15,2013-04-16 13:15:00,
2013-04-16 09:20:00,48.3,44.6,30.40,SSE,148,4.0,10.0,87,0.00,,,0.00,Wunderground v.1.15,2013-04-16 13:20:00,
2013-04-16 09:25:00,47.9,44.5,30.40,SSE,158,7.0,10.0,88,0.00,,,0.00,Wunderground v.1.15,2013-04-16 13:25:00,
2013-04-16 09:30:00,48.3,44.9,30.40,South,176,7.0,8.0,88,0.00,,,0.00,Wunderground v.1.15,2013-04-16 13:30:00,
2013-04-16 09:35:00,49.0,45.3,30.40,South,179,6.0,8.0,87,0.00,,,0.00,Wunderground v.1.15,2013-04-16 13:35:00,
2013-04-16 09:40:00,49.2,45.5,30.40,SSE,148,5.0,5.0,87,0.00,,,0.00,Wunderground v.1.15,2013-04-16 13:40:00,
2013-04-16 09:45:00,49.3,45.3,30.40,ESE,123,4.0,5.0,86,0.00,,,0.00,Wunderground v.1.15,2013-04-16 13:45:00,
2013-04-16 09:50:00,48.7,44.7,30.40,SE,141,4.0,5.0,86,0.00,,,0.00,Wunderground v.1.15,2013-04-16 13:50:00,
2013-04-16 09:55:00,48.2,44.5,30.40,SE,139,6.0,6.0,87,0.00,,,0.00,Wunderground v.1.15,2013-04-16 13:55:00,
2013-04-16 10:00:00,47.9,44.5,30.40,SSE,150,7.0,7.0,88,0.00,,,0.00,Wunderground v.1.15,2013-04-16 14:00:00,
2013-04-16 10:10:00,47.9,44.5,30.40,SSE,165,7.0,7.0,88,0.00,,,0.00,Wunderground v.1.15,2013-04-16 14:10:00,
2013-04-16 10:20:00,48.1,44.7,30.40,SE,145,7.0,7.0,88,0.00,,,0.00,Wunderground v.1.15,2013-04-16 14:20:00,
2013-04-16 10:30:00,48.7,45.3,30.40,SSW,195,6.0,6.0,88,0.00,,,0.00,Wunderground v.1.15,2013-04-16 14:30:00,
2013-04-16 10:35:00,48.6,44.9,30.40,SE,143,6.0,6.0,87,0.00,,,0.00,Wunderground v.1.15,2013-04-16 14:35:00,
2013-04-16 10:40:00,48.9,45.5,30.40,SE,124,6.0,6.0,88,0.00,,,0.00,Wunderground v.1.15,2013-04-16 14:40:00,
2013-04-16 10:45:00,49.1,45.4,30.40,SE,146,6.0,6.0,87,0.00,,,0.00,Wunderground v.1.15,2013-04-16 14:45:00,
2013-04-16 10:50:00,49.1,45.4,30.40,SSE,148,5.0,7.0,87,0.00,,,0.00,Wunderground v.1.15,2013-04-16 14:50:00,
2013-04-16 10:55:00,49.1,45.4,30.40,SE,146,5.0,7.0,87,0.00,,,0.00,Wunderground v.1.15,2013-04-16 14:55:00,
2013-04-16 11:05:00,49.8,45.8,30.40,SE,132,5.0,6.0,86,0.00,,,0.00,Wunderground v.1.15,2013-04-16 15:05:00,
2013-04-16 11:10:00,50.2,46.2,30.41,South,186,4.0,4.0,86,0.00,,,0.00,Wunderground v.1.15,2013-04-16 15:10:00,
2013-04-16 11:15:00,50.6,45.9,30.40,SSW,193,4.0,4.0,84,0.00,,,0.00,Wunderground v.1.15,2013-04-16 15:15:00,
2013-04-16 11:20:00,50.6,45.9,30.40,SE,127,4.0,4.0,84,0.00,,,0.00,Wunderground v.1.15,2013-04-16 15:20:00,
2013-04-16 11:25:00,50.6,46.3,30.39,ESE,109,5.0,7.0,85,0.00,,,0.00,Wunderground v.1.15,2013-04-16 15:25:00,
2013-04-16 11:30:00,50.3,46.0,30.38,SE,124,5.0,8.0,85,0.00,,,0.00,Wunderground v.1.15,2013-04-16 15:30:00,
2013-04-16 11:35:00,50.3,46.3,30.38,SE,143,6.0,8.0,86,0.00,,,0.00,Wunderground v.1.15,2013-04-16 15:35:00,
2013-04-16 11:40:00,50.3,46.0,30.38,SE,126,6.0,6.0,85,0.00,,,0.00,Wunderground v.1.15,2013-04-16 15:40:00,
2013-04-16 11:45:00,50.3,46.0,30.37,SE,144,6.0,6.0,85,0.00,,,0.00,Wunderground v.1.15,2013-04-16 15:45:00,
2013-04-16 11:50:00,50.2,45.9,30.38,SSE,151,6.0,6.0,85,0.00,,,0.00,Wunderground v.1.15,2013-04-16 15:50:00,
2013-04-16 11:55:00,50.1,45.8,30.37,East,100,7.0,7.0,85,0.00,,,0.00,Wunderground v.1.15,2013-04-16 15:55:00,
2013-04-16 12:05:00,50.4,46.1,30.36,SSE,160,8.0,10.0,85,0.00,,,0.00,Wunderground v.1.15,2013-04-16 16:05:00,
2013-04-16 12:10:00,49.9,45.9,30.37,SSE,148,8.0,9.0,86,0.00,,,0.00,Wunderground v.1.15,2013-04-16 16:10:00,
2013-04-16 12:20:00,50.1,46.1,30.36,SSE,156,8.0,8.0,86,0.00,,,0.00,Wunderground v.1.15,2013-04-16 16:20:00,
2013-04-16 12:25:00,49.9,45.9,30.36,SE,132,8.0,8.0,86,0.00,,,0.00,Wunderground v.1.15,2013-04-16 16:25:00,
2013-04-16 12:30:00,49.8,45.8,30.36,SE,127,7.0,7.0,86,0.00,,,0.00,Wunderground v.1.15,2013-04-16 16:30:00,
2013-04-16 12:35:00,50.0,46.0,30.36,SSE,153,7.0,7.0,86,0.00,,,0.00,Wunderground v.1.15,2013-04-16 16:35:00,
2013-04-16 12:40:00,50.0,46.0,30.35,SE,142,7.0,7.0,86,0.00,,,0.00,Wunderground v.1.15,2013-04-16 16:40:00,
2013-04-16 12:45:00,50.1,46.4,30.35,SSE,153,8.0,8.0,87,0.00,,,0.00,Wunderground v.1.15,2013-04-16 16:45:00,
2013-04-16 12:50:00,50.8,46.5,30.35,South,170,9.0,10.0,85,0.00,,,0.00,Wunderground v.1.15,2013-04-16 16:50:00,
2013-04-16 12:55:00,50.8,46.5,30.35,SSE,163,9.0,10.0,85,0.00,,,0.00,Wunderground v.1.15,2013-04-16 16:55:00,
2013-04-16 13:00:00,50.6,46.3,30.34,SSE,163,10.0,11.0,85,0.00,,,0.00,Wunderground v.1.15,2013-04-16 17:00:00,
2013-04-16 13:05:00,50.5,46.2,30.34,South,173,9.0,11.0,85,0.00,,,0.00,Wunderground v.1.15,2013-04-16 17:05:00,
2013-04-16 13:15:00,50.5,46.5,30.33,South,175,9.0,11.0,86,0.00,,,0.00,Wunderground v.1.15,2013-04-16 17:15:00,
2013-04-16 13:20:00,50.9,46.6,30.33,SSE,153,10.0,10.0,85,0.00,,,0.00,Wunderground v.1.15,2013-04-16 17:20:00,
2013-04-16 13:30:00,51.3,46.6,30.33,SSE,165,9.0,9.0,84,0.00,,,0.00,Wunderground v.1.15,2013-04-16 17:30:00,
2013-04-16 13:35:00,51.3,46.6,30.33,SSE,159,8.0,9.0,84,0.00,,,0.00,Wunderground v.1.15,2013-04-16 17:35:00,
2013-04-16 13:55:00,53.1,47.4,30.33,South,184,11.0,11.0,81,0.00,,,0.00,Wunderground v.1.15,2013-04-16 17:55:00,
2013-04-16 14:00:00,53.4,47.4,30.33,SSE,166,10.0,10.0,80,0.00,,,0.00,Wunderground v.1.15,2013-04-16 18:00:00,
2013-04-16 14:10:00,53.2,47.5,30.33,SSE,150,9.0,9.0,81,0.00,,,0.00,Wunderground v.1.15,2013-04-16 18:10:00,
2013-04-16 14:15:00,53.5,47.8,30.33,SW,225,8.0,9.0,81,0.00,,,0.00,Wunderground v.1.15,2013-04-16 18:15:00,
2013-04-16 14:20:00,53.7,47.7,30.33,SW,214,7.0,11.0,80,0.00,,,0.00,Wunderground v.1.15,2013-04-16 18:20:00,
2013-04-16 14:25:00,53.8,47.1,30.33,SSE,158,8.0,11.0,78,0.00,,,0.00,Wunderground v.1.15,2013-04-16 18:25:00,
2013-04-16 14:30:00,53.7,47.3,30.32,South,176,10.0,10.0,79,0.00,,,0.00,Wunderground v.1.15,2013-04-16 18:30:00,
2013-04-16 14:35:00,53.8,47.4,30.32,SSE,156,10.0,10.0,79,0.00,,,0.00,Wunderground v.1.15,2013-04-16 18:35:00,
2013-04-16 14:40:00,54.1,47.4,30.32,SSE,163,10.0,10.0,78,0.00,,,0.00,Wunderground v.1.15,2013-04-16 18:40:00,
2013-04-16 14:45:00,54.0,47.3,30.32,SSW,212,10.0,10.0,78,0.00,,,0.00,Wunderground v.1.15,2013-04-16 18:45:00,
2013-04-16 14:50:00,53.8,47.4,30.32,SSW,197,11.0,11.0,79,0.00,,,0.00,Wunderground v.1.15,2013-04-16 18:50:00,
2013-04-16 14:55:00,53.5,47.5,30.32,SSE,159,10.0,13.0,80,0.00,,,0.00,Wunderground v.1.15,2013-04-16 18:55:00,
2013-04-16 15:00:00,53.3,47.3,30.31,SSE,162,9.0,10.0,80,0.00,,,0.00,Wunderground v.1.15,2013-04-16 19:00:00,
2013-04-16 15:05:00,52.9,47.2,30.31,SSW,194,9.0,10.0,81,0.00,,,0.00,Wunderground v.1.15,2013-04-16 19:05:00,
2013-04-16 15:10:00,53.0,47.7,30.31,South,189,8.0,8.0,82,0.00,,,0.00,Wunderground v.1.15,2013-04-16 19:10:00,
2013-04-16 15:15:00,53.6,47.9,30.31,SSW,203,6.0,8.0,81,0.00,,,0.00,Wunderground v.1.15,2013-04-16 19:15:00,
2013-04-16 15:20:00,54.2,48.2,30.31,SSE,151,5.0,7.0,80,0.00,,,0.00,Wunderground v.1.15,2013-04-16 19:20:00,
2013-04-16 15:25:00,54.0,47.6,30.31,SSW,205,7.0,7.0,79,0.00,,,0.00,Wunderground v.1.15,2013-04-16 19:25:00,
2013-04-16 15:30:00,54.2,48.2,30.31,South,173,7.0,8.0,80,0.00,,,0.00,Wunderground v.1.15,2013-04-16 19:30:00,
2013-04-16 15:35:00,54.6,48.2,30.31,SSE,160,7.0,8.0,79,0.00,,,0.00,Wunderground v.1.15,2013-04-16 19:35:00,
2013-04-16 15:40:00,54.8,48.1,30.31,SSE,156,6.0,8.0,78,0.00,,,0.00,Wunderground v.1.15,2013-04-16 19:40:00,
2013-04-16 15:45:00,55.0,48.6,30.31,SSW,194,7.0,11.0,79,0.00,,,0.00,Wunderground v.1.15,2013-04-16 19:45:00,
2013-04-16 15:50:00,54.9,48.5,30.31,SSW,197,9.0,9.0,79,0.00,,,0.00,Wunderground v.1.15,2013-04-16 19:50:00,
2013-04-16 15:55:00,54.8,48.4,30.30,SSW,207,11.0,13.0,79,0.00,,,0.00,Wunderground v.1.15,2013-04-16 19:55:00,
2013-04-16 16:00:00,54.6,48.6,30.29,SSE,158,12.0,12.0,80,0.00,,,0.00,Wunderground v.1.15,2013-04-16 20:00:00,
2013-04-16 16:05:00,54.1,48.4,30.28,SSE,155,13.0,14.0,81,0.00,,,0.00,Wunderground v.1.15,2013-04-16 20:05:00,
2013-04-16 16:15:00,53.6,48.2,30.28,South,176,11.0,12.0,82,0.00,,,0.00,Wunderground v.1.15,2013-04-16 20:15:00,
2013-04-16 16:20:00,53.4,48.4,30.27,South,187,10.0,10.0,83,0.00,,,0.00,Wunderground v.1.15,2013-04-16 20:20:00,
2013-04-16 16:25:00,53.2,48.5,30.27,South,191,10.0,13.0,84,0.00,,,0.00,Wunderground v.1.15,2013-04-16 20:25:00,
2013-04-16 16:30:00,53.0,48.3,30.27,South,177,10.0,10.0,84,0.00,,,0.00,Wunderground v.1.15,2013-04-16 20:30:00,
2013-04-16 16:35:00,52.9,48.2,30.26,South,184,10.0,12.0,84,0.00,,,0.00,Wunderground v.1.15,2013-04-16 20:35:00,
2013-04-16 16:40:00,53.0,48.6,30.26,South,174,10.0,10.0,85,0.00,,,0.00,Wunderground v.1.15,2013-04-16 20:40:00,
2013-04-16 16:45:00,52.7,48.3,30.27,SSW,203,10.0,10.0,85,0.00,,,0.00,Wunderground v.1.15,2013-04-16 20:45:00,
2013-04-16 16:50:00,52.4,48.3,30.26,South,169,11.0,12.0,86,0.00,,,0.00,Wunderground v.1.15,2013-04-16 20:50:00,
2013-04-16 16:55:00,52.3,48.5,30.26,South,187,11.0,17.0,87,0.00,,,0.00,Wunderground v.1.15,2013-04-16 20:55:00,
2013-04-16 17:00:00,52.4,48.6,30.26,SSW,210,12.0,14.0,87,0.00,,,0.00,Wunderground v.1.15,2013-04-16 21:00:00,
2013-04-16 17:05:00,52.3,48.5,30.26,South,188,13.0,14.0,87,0.00,,,0.00,Wunderground v.1.15,2013-04-16 21:05:00,
2013-04-16 17:15:00,51.8,48.4,30.26,SW,219,13.0,13.0,88,0.00,,,0.00,Wunderground v.1.15,2013-04-16 21:15:00,
2013-04-16 17:25:00,51.3,48.2,30.26,South,173,12.0,16.0,89,0.00,,,0.00,Wunderground v.1.15,2013-04-16 21:25:00,
2013-04-16 17:30:00,51.5,48.7,30.26,South,187,9.0,9.0,90,0.00,,,0.00,Wunderground v.1.15,2013-04-16 21:30:00,
2013-04-16 17:35:00,51.6,48.5,30.25,SSW,196,7.0,12.0,89,0.00,,,0.00,Wunderground v.1.15,2013-04-16 21:35:00,
2013-04-16 17:40:00,51.5,48.7,30.24,South,181,8.0,12.0,90,0.00,,,0.00,Wunderground v.1.15,2013-04-16 21:40:00,
2013-04-16 17:45:00,51.5,48.7,30.24,SSW,196,9.0,12.0,90,0.00,,,0.00,Wunderground v.1.15,2013-04-16 21:45:00,
2013-04-16 17:50:00,51.7,48.9,30.24,SSW,193,9.0,9.0,90,0.00,,,0.00,Wunderground v.1.15,2013-04-16 21:50:00,
2013-04-16 18:00:00,51.5,49.0,30.23,SSW,200,12.0,12.0,91,0.00,,,0.00,Wunderground v.1.15,2013-04-16 22:00:00,
2013-04-16 18:10:00,51.5,49.0,30.22,South,184,12.0,17.0,91,0.00,,,0.00,Wunderground v.1.15,2013-04-16 22:10:00,
2013-04-16 18:15:00,51.6,49.1,30.22,SSW,203,14.0,17.0,91,0.00,,,0.00,Wunderground v.1.15,2013-04-16 22:15:00,
2013-04-16 18:20:00,51.6,49.4,30.21,SSW,201,14.0,14.0,92,0.00,,,0.00,Wunderground v.1.15,2013-04-16 22:20:00,
2013-04-16 18:25:00,51.7,49.5,30.21,SSE,161,13.0,16.0,92,0.00,,,0.00,Wunderground v.1.15,2013-04-16 22:25:00,
2013-04-16 18:30:00,51.8,49.5,30.20,South,187,11.0,16.0,92,0.00,,,0.00,Wunderground v.1.15,2013-04-16 22:30:00,
2013-04-16 18:35:00,51.7,49.2,30.20,South,181,11.0,16.0,91,0.00,,,0.00,Wunderground v.1.15,2013-04-16 22:35:00,
2013-04-16 18:40:00,51.6,49.1,30.20,SSW,210,13.0,13.0,91,0.00,,,0.00,Wunderground v.1.15,2013-04-16 22:40:00,
2013-04-16 18:45:00,51.4,49.2,30.19,South,181,13.0,14.0,92,0.00,,,0.00,Wunderground v.1.15,2013-04-16 22:45:00,
2013-04-16 18:50:00,51.1,48.9,30.18,SW,214,14.0,14.0,92,0.00,,,0.00,Wunderground v.1.15,2013-04-16 22:50:00,
2013-04-16 18:55:00,51.1,48.9,30.18,SSE,167,15.0,16.0,92,0.00,,,0.00,Wunderground v.1.15,2013-04-16 22:55:00,
2013-04-16 19:05:00,50.9,48.9,30.18,SW,214,16.0,17.0,93,0.00,,,0.00,Wunderground v.1.15,2013-04-16 23:05:00,
2013-04-16 19:15:00,50.9,48.9,30.18,SSE,164,14.0,16.0,93,0.00,,,0.00,Wunderground v.1.15,2013-04-16 23:15:00,
2013-04-16 19:20:00,51.1,49.1,30.18,SSW,205,15.0,20.0,93,0.00,,,0.00,Wunderground v.1.15,2013-04-16 23:20:00,
2013-04-16 19:30:00,51.3,49.3,30.17,SSW,204,17.0,17.0,93,0.00,,,0.00,Wunderground v.1.15,2013-04-16 23:30:00,
2013-04-16 19:40:00,51.4,49.4,30.17,SSW,198,17.0,19.0,93,0.00,,,0.00,Wunderground v.1.15,2013-04-16 23:40:00,
2013-04-16 19:45:00,51.3,49.3,30.17,South,176,15.0,19.0,93,0.00,,,0.00,Wunderground v.1.15,2013-04-16 23:45:00,
2013-04-16 19:50:00,51.4,49.4,30.17,SSW,193,12.0,14.0,93,0.00,,,0.00,Wunderground v.1.15,2013-04-16 23:50:00,
2013-04-16 19:55:00,51.4,49.4,30.17,SSE,158,11.0,14.0,93,0.00,,,0.00,Wunderground v.1.15,2013-04-16 23:55:00,
2013-04-16 20:00:00,51.5,49.5,30.17,SW,228,11.0,11.0,93,0.00,,,0.00,Wunderground v.1.15,2013-04-17 00:00:00,
2013-04-16 20:05:00,51.6,49.6,30.17,SSW,200,11.0,11.0,93,0.00,,,0.00,Wunderground v.1.15,2013-04-17 00:05:00,
2013-04-16 20:10:00,51.6,49.6,30.16,SSW,198,11.0,11.0,93,0.00,,,0.00,Wunderground v.1.15,2013-04-17 00:10:00,
2013-04-16 20:15:00,51.7,49.5,30.16,SSW,207,10.0,11.0,92,0.00,,,0.00,Wunderground v.1.15,2013-04-17 00:15:00,
2013-04-16 20:20:00,51.6,49.4,30.16,WSW,240,11.0,11.0,92,0.00,,,0.00,Wunderground v.1.15,2013-04-17 00:20:00,
2013-04-16 20:25:00,51.8,49.5,30.16,SSW,211,13.0,13.0,92,0.00,,,0.00,Wunderground v.1.15,2013-04-17 00:25:00,
2013-04-16 20:30:00,51.9,49.6,30.18,SW,230,12.0,12.0,92,0.00,,,0.00,Wunderground v.1.15,2013-04-17 00:30:00,
2013-04-16 20:40:00,52.7,50.1,30.19,SW,236,11.0,11.0,91,0.00,,,0.00,Wunderground v.1.15,2013-04-17 00:40:00,
2013-04-16 20:45:00,52.6,49.8,30.19,SW,232,10.0,11.0,90,0.00,,,0.00,Wunderground v.1.15,2013-04-17 00:45:00,
2013-04-16 20:50:00,52.0,49.2,30.19,SW,222,9.0,9.0,90,0.00,,,0.00,Wunderground v.1.15,2013-04-17 00:50:00,
2013-04-16 21:00:00,51.6,49.1,30.19,West,260,9.0,9.0,91,0.00,,,0.00,Wunderground v.1.15,2013-04-17 01:00:00,
2013-04-16 21:05:00,51.4,48.9,30.20,SSW,207,8.0,11.0,91,0.00,,,0.00,Wunderground v.1.15,2013-04-17 01:05:00,
2013-04-16 21:10:00,51.4,48.9,30.19,SW,217,8.0,8.0,91,0.00,,,0.00,Wunderground v.1.15,2013-04-17 01:10:00,
2013-04-16 21:15:00,51.4,48.9,30.20,SW,231,7.0,8.0,91,0.00,,,0.00,Wunderground v.1.15,2013-04-17 01:15:00,
2013-04-16 21:20:00,51.3,49.1,30.20,WSW,242,6.0,6.0,92,0.00,,,0.00,Wunderground v.1.15,2013-04-17 01:20:00,
2013-04-16 21:30:00,51.6,49.1,30.20,WSW,256,6.0,7.0,91,0.00,,,0.00,Wunderground v.1.15,2013-04-17 01:30:00,
2013-04-16 21:35:00,51.8,49.3,30.20,SW,225,7.0,10.0,91,0.00,,,0.00,Wunderground v.1.15,2013-04-17 01:35:00,
2013-04-16 21:40:00,51.8,49.3,30.20,SSW,210,7.0,7.0,91,0.00,,,0.00,Wunderground v.1.15,2013-04-17 01:40:00,
2013-04-16 21:45:00,52.0,49.5,30.19,SSW,213,7.0,10.0,91,0.00,,,0.00,Wunderground v.1.15,2013-04-17 01:45:00,
2013-04-16 21:50:00,51.9,49.4,30.19,SSW,206,7.0,7.0,91,0.00,,,0.00,Wunderground v.1.15,2013-04-17 01:50:00,
2013-04-16 21:55:00,51.7,49.2,30.19,SW,219,7.0,9.0,91,0.00,,,0.00,Wunderground v.1.15,2013-04-17 01:55:00,
2013-04-16 22:05:00,51.3,48.8,30.20,WSW,253,6.0,7.0,91,0.00,,,0.00,Wunderground v.1.15,2013-04-17 02:05:00,
2013-04-16 22:10:00,51.4,48.9,30.20,SW,224,7.0,7.0,91,0.00,,,0.00,Wunderground v.1.15,2013-04-17 02:10:00,
2013-04-16 22:15:00,51.6,49.1,30.19,WSW,240,7.0,7.0,91,0.00,,,0.00,Wunderground v.1.15,2013-04-17 02:15:00,
2013-04-16 22:20:00,52.1,49.6,30.18,SW,236,7.0,7.0,91,0.00,,,0.00,Wunderground v.1.15,2013-04-17 02:20:00,
2013-04-16 22:25:00,52.4,49.6,30.18,WSW,252,6.0,7.0,90,0.00,,,0.00,Wunderground v.1.15,2013-04-17 02:25:00,
2013-04-16 22:30:00,52.5,49.7,30.18,WSW,238,5.0,8.0,90,0.00,,,0.00,Wunderground v.1.15,2013-04-17 02:30:00,
2013-04-16 22:35:00,52.6,49.4,30.18,SW,229,4.0,8.0,89,0.00,,,0.00,Wunderground v.1.15,2013-04-17 02:35:00,
2013-04-16 22:40:00,52.8,49.6,30.17,SW,229,4.0,5.0,89,0.00,,,0.00,Wunderground v.1.15,2013-04-17 02:40:00,
2013-04-16 22:50:00,52.8,49.6,30.17,SSW,204,5.0,5.0,89,0.00,,,0.00,Wunderground v.1.15,2013-04-17 02:50:00,
2013-04-16 22:55:00,52.8,49.3,30.16,South,187,5.0,7.0,88,0.00,,,0.00,Wunderground v.1.15,2013-04-17 02:55:00,
2013-04-16 23:00:00,52.4,49.3,30.16,SW,225,7.0,9.0,89,0.00,,,0.00,Wunderground v.1.15,2013-04-17 03:00:00,
2013-04-16 23:05:00,52.0,48.9,30.16,WSW,238,8.0,9.0,89,0.00,,,0.00,Wunderground v.1.15,2013-04-17 03:05:00,
2013-04-16 23:10:00,51.6,48.8,30.16,SW,229,8.0,8.0,90,0.00,,,0.00,Wunderground v.1.15,2013-04-17 03:10:00,
2013-04-16 23:15:00,51.3,48.5,30.15,SSW,194,7.0,9.0,90,0.00,,,0.00,Wunderground v.1.15,2013-04-17 03:15:00,
2013-04-16 23:20:00,51.1,48.6,30.16,WSW,249,7.0,9.0,91,0.00,,,0.00,Wunderground v.1.15,2013-04-17 03:20:00,
2013-04-16 23:30:00,51.2,48.7,30.16,SW,229,6.0,7.0,91,0.00,,,0.00,Wunderground v.1.15,2013-04-17 03:30:00,
2013-04-16 23:40:00,51.4,48.9,30.15,WSW,238,5.0,5.0,91,0.00,,,0.00,Wunderground v.1.15,2013-04-17 03:40:00,
2013-04-16 23:45:00,51.7,49.2,30.16,WSW,249,6.0,7.0,91,0.00,,,0.00,Wunderground v.1.15,2013-04-17 03:45:00,
2013-04-16 23:50:00,52.1,49.3,30.16,WSW,252,6.0,6.0,90,0.00,,,0.00,Wunderground v.1.15,2013-04-17 03:50:00,